Location: Heidgraben
(53.7081°N, 9.6576°E)
Time: 04:46:00
(UTC+00:00)

Resurs 1-4 Rocket - Pass Details

Date: 05 July 2020
Orbit: 800 x 814 km, 98.6° (Epoch: 06 August)

Event Time Altitude Azimuth Distance (km) Brightness Sun altitude
Rises 23:37:22 0° 26° (NNE) 3,353 6.7 -13.6°
Reaches altitude 10° 23:40:34 10° 46° (NE) 2,415 5.3 -13.6°
Maximum altitude 23:44:03 17° 86° (E) 1,940 4.2 -13.5°
Drops below altitude 10° 23:47:30 10° 127° (SE) 2,400 4.3 -13.5°
Enters shadow 23:48:44 - 137° (SE) 2,727 4.5 -13.5°
